Weather observations for the past three days for
Lee's Summit, Lee's Summit Municipal Airport
Metric (Imperial)
Date Time (cdt) Wind (kph) Vis. (km) Weather Sky Cond. Temperature (ºC) Relative Humidity Wind Chill (°C) Heat Index (°C) Pressure Precipitation (cm)
Air Dwpt 6 hour altimeter (cm) sea level (mb) 1 hr 3 hr 6 hr
Max. Min.
16 05:53 W 6 16.09 A Few Clouds FEW034 23.9 19.4 76% 24 75.84 1010.1
16 04:53 SW 11 16.09 A Few Clouds FEW055 24.4 21.1 82% 25 75.87 1010.4
16 03:53 S 15 16.09 Fair CLR 25 21.1 79% 26 75.77 1008.8
16 02:53 S 15 16.09 Fair CLR 26.1 21.1 74% 28 75.79 1009.2
16 01:53 S 19 16.09 Fair CLR 27.2 21.1 69% 29 75.79 1009.2
16 00:53 S 20 16.09 Fair CLR 27.2 21.7 31.1 27.2 72% 29 75.77 1009.1
15 23:53 S 20 G 39 16.09 Fair CLR 27.8 22.2 72% 30 75.79 1009.2
15 22:53 S 19 G 33 16.09 Fair CLR 27.8 22.2 72% 30 75.77 1009.2
15 21:53 S 13 16.09 Fair CLR 28.3 21.7 67% 31 75.79 1009.6
15 20:53 S 15 16.09 Fair CLR 29.4 21.1 61% 32 75.77 1009.2
15 19:53 S 20 G 31 16.09 Mostly Cloudy BKN050 BKN060 30.6 21.7 59% 34 75.79 1009.3
15 18:53 S 22 G 35 16.09 Partly Cloudy FEW060 SCT075 31.1 21.7 32.8 29.4 57% 34 75.79 1009.3
15 17:53 SE 22 G 35 16.09 Mostly Cloudy FEW046 FEW075 BKN100 30.6 22.8 63% 35 75.82 1009.8
15 16:53 SE 24 G 37 16.09 Fair CLR 32.2 21.1 52% 35 75.84 1010.1
15 15:53 S 19 16.09 Partly Cloudy FEW045 SCT060 SCT085 32.2 21.1 52% 35 75.92 1011.2
15 14:53 E 15 16.09 Mostly Cloudy SCT033 BKN041 BKN090 30.6 23.9 67% 36 75.95 1011.5
15 13:53 SE 20 G 31 16.09 Fair CLR 30.6 22.8 63% 35 76.02 1012.3
15 12:53 E 17 16.09 Fair CLR 29.4 22.2 29.4 22.8 65% 33 76.07 1013.0
15 11:53 E 15 16.09 A Few Clouds FEW060 27.8 20.6 65% 30 76.15 1014.1
15 10:53 NE 17 16.09 Partly Cloudy SCT048 25.6 18.3 64% 27 76.17 1014.8
15 09:53 NE 11 16.09 Thunderstorm in Vicinity BKN023 OVC028 23.9 17.8 69% 25 76.23 1015.2
15 08:53 N 24 16.09 Overcast OVC025 22.8 17.2 71% 76.23 1015.2
15 07:53 SE 9 16.09 Partly Cloudy FEW080 SCT090 25 18.3 66% 26 76.2 1014.8
15 06:53 SE 19 16.09 Fair CLR 23.9 16.7 23.9 21.7 64% 25 76.15 1014.2
15 05:53 SE 15 16.09 A Few Clouds FEW080 23.9 15.6 60% 25 76.17 1014.4
15 04:53 SE 11 16.09 Mostly Cloudy SCT065 BKN075 23.9 15.6 60% 25 76.2 1014.6
15 03:53 SE 11 16.09 A Few Clouds FEW055 FEW065 23.9 15.6 60% 25 76.2 1014.7
15 02:53 SE 7 16.09 Partly Cloudy SCT055 23.3 15.6 62% 76.2 1014.9
15 01:53 E 9 16.09 Fair CLR 22.2 16.1 68% 76.2 1014.8
15 00:53 E 7 16.09 Fair CLR 23.9 16.7 29.4 22.2 64% 25 76.25 1015.3
14 23:53 E 7 16.09 Fair CLR 23.3 17.2 69% 76.25 1015.5
14 22:53 E 9 16.09 Fair CLR 23.3 17.8 71% 76.25 1015.6
14 21:53 E 9 16.09 Fair CLR 24.4 18.3 69% 25 76.23 1015.4
14 20:53 E 7 16.09 Fair CLR 25.6 17.8 62% 27 76.2 1015.0
14 19:53 E 9 16.09 Fair CLR 27.8 18.3 56% 29 76.23 1015.1
14 18:53 E 17 16.09 Fair CLR 29.4 17.2 31.7 29.4 48% 30 76.2 1015.0
14 17:53 E 17 16.09 Fair CLR 30 16.7 45% 30 76.23 1015.2
14 16:53 NE 19 16.09 Fair CLR 30.6 19.4 51% 32 76.28 1015.8
14 15:53 E 17 16.09 Fair CLR 31.1 18.9 48% 32 76.28 1015.9
14 14:53 E 22 16.09 Fair CLR 31.1 18.9 48% 32 76.3 1016.2
14 13:53 NE 19 16.09 Fair CLR 30.6 19.4 51% 32 76.35 1016.7
14 12:53 NE 17 16.09 A Few Clouds FEW075 29.4 19.4 29.4 21.7 55% 31 76.38 1017.1
14 11:53 NE 26 16.09 Mostly Cloudy BKN075 27.8 20 63% 29 76.38 1017.2
14 10:53 E 17 16.09 Mostly Cloudy BKN070 27.8 21.1 67% 30 76.35 1016.9
14 09:53 N 11 16.09 Mostly Cloudy BKN070 26.7 19.4 64% 28 76.38 1017.1
14 08:53 NE 13 16.09 NULL NULL 25.6 18.9 67% 27 76.35 1017.0
14 07:53 NE 9 16.09 Overcast OVC060 22.8 18.9 79% 76.35 1016.9
14 06:53 NE 9 16.09 Overcast OVC055 22.2 18.9 23.3 21.1 82% 76.28 1016.0
14 05:53 NE 6 16.09 Fair CLR 21.7 18.3 81% 76.23 1015.2
14 04:53 Calm 16.09 Fair CLR 21.7 18.3 81% 76.15 1014.2
14 03:53 S 11 16.09 Fair CLR 21.7 18.3 81% 76.12 1013.7
14 01:53 E 13 16.09 Mostly Cloudy BKN038 23.3 18.9 76% 76.2 1014.8
14 00:53 SE 15 16.09 Fair CLR 23.3 18.3 32.2 23.3 74% 76.05 1012.6
13 23:53 SE 22 G 39 16.09 Mostly Cloudy BKN049 BKN070 24.4 20 77% 25 76.02 1012.2
13 22:53 S 11 16.09 Thunderstorm in Vicinity SCT070 OVC090 29.4 22.2 65% 33 75.92 1010.9
13 21:53 SW 22 16.09 Mostly Cloudy BKN060 30 21.7 61% 33 75.77 1009.0
13 20:53 S 17 16.09 Fair CLR 30 21.7 61% 33 75.77 1009.0
13 19:53 SW 22 16.09 Fair CLR 31.7 22.2 57% 36 75.77 1009.1
13 18:53 SW 22 16.09 Fair CLR 32.2 22.8 33.9 30.6 58% 37 75.74 1008.7
13 17:53 SW 24 G 43 16.09 Fair CLR 32.8 22.8 56% 38 75.77 1008.9
13 16:53 S 30 G 44 16.09 Fair CLR 33.3 22.8 54% 38 75.79 1009.3
13 15:53 S 28 16.09 Fair CLR 33.3 22.8 54% 38 75.84 1009.9
13 14:53 SW 22 G 41 16.09 Fair CLR 32.8 22.2 54% 37 75.87 1010.3
13 13:53 SW 26 G 33 16.09 A Few Clouds FEW110 31.7 21.7 55% 35 75.87 1010.3
13 12:53 SW 30 G 43 16.09 Fair CLR 32.2 22.2 32.2 23.3 56% 36 75.87 1010.3
13 11:53 S 28 G 43 16.09 Fair CLR 31.1 21.7 57% 34 75.84 1010.2
13 10:53 SW 26 16.09 Fair CLR 29.4 21.1 61% 32 75.87 1010.4
13 09:53 SW 30 16.09 Fair CLR 27.8 20.6 65% 30 75.92 1011.0
13 08:53 SW 28 G 39 16.09 NULL NULL 26.7 19.4 64% 28 75.92 1011.0
13 07:53 SW 22 16.09 Fair CLR 25 18.9 69% 26 75.92 1010.9
13 06:53 S 20 16.09 Fair CLR 23.3 18.3 24.4 22.8 74% 75.9 1010.6
Date Time (cdt) Wind (kph) Vis. (km) Weather Sky Cond. Air Dwpt Max. Min. Relative Humidity Wind Chill (°C) Heat Index (°C) altimeter (cm) sea level (mb) 1 hr 3 hr 6 hr
6 hour
Temperature (ºC) Pressure Precipitation (cm)